Location: ??????????
(55.6411°N, 39.0839°E)
Time: 06:09:11
(UTC+00:00)

Daily predictions for brighter satellites

Satellite Brightness Start Highest point End
(mag) Time Altitude Azimuth Time Altitude Azimuth Time Altitude Azimuth
Cosmos 1814 Rocket 4.2 15:23:39 10° NNW 15:28:52 54° NE 15:33:59 10° SE
USA 267 4.2 15:26:17 10° SE 15:32:33 47° SW 15:38:52 10° WNW
PSLV R/B 3.6 15:30:03 10° SSE 15:33:44 85° ENE 15:37:26 10° NNW
CZ-4B R/B 3.2 15:29:27 10° SSE 15:34:49 69° ENE 15:40:20 10° NNW
Cosmos 1980 Rocket 2.6 15:33:08 10° S 15:38:22 41° ESE 15:43:37 10° NE
Cosmos 2285 Rocket 4.1 15:32:15 10° NNW 15:38:34 61° NE 15:44:52 10° SE
Tsikada Rocket 4.4 15:33:26 10° SSW 15:39:52 75° WNW 15:46:18 10° N
CZ-2C R/B 4.0 15:35:44 10° N 15:40:59 45° WNW 15:46:16 10° SW
H-2A R/B 4.3 15:40:51 10° E 15:42:47 13° NE 15:44:41 10° NNE
ASTEX 1 3.4 15:39:50 10° N 15:44:49 69° E 15:49:47 10° S
Timation 2 Rocket 4.2 15:38:24 10° NW 15:44:59 80° WSW 15:51:14 10° SSE
Nadezhda 4 Rocket 4.5 15:39:41 10° SSE 15:45:27 39° E 15:51:12 10° NNE
Cosmos 1242 Rocket 2.5 15:43:09 10° S 15:46:39 58° E 15:50:09 10° NNE
Cosmos 2084 Rocket 3.4 15:45:37 10° NW 15:49:22 57° NNE 15:53:01 11° ESE
Cosmos 2369 3.9 15:45:16 10° S 15:50:48 53° ESE 15:56:21 10° NE
MINOTAUR 4 R/B 4.1 15:47:29 10° NNE 15:51:00 82° WNW 15:54:28 10° SSW
Cosmos 676 Rocket 4.1 15:46:09 10° SSW 15:51:20 86° WNW 15:56:34 10° NNE
Cosmos 1674 Rocket 3.5 15:47:04 10° N 15:51:29 74° ENE 15:55:54 10° SSE
Okean O Rocket 1.6 15:47:38 10° SSE 15:51:58 68° ENE 15:56:22 10° NNW
YAOGAN 1 2.5 15:53:06 10° SSE 15:57:25 86° ENE 16:01:47 10° NNW
Cosmos 2278 4.3 15:52:30 10° S 15:57:34 35° ESE 16:02:39 10° NE
Cosmos 1844 Rocket 3.2 15:52:12 10° NNW 15:57:37 43° NE 16:02:39 12° ESE
SKYMED 2 3.6 15:53:56 10° NNE 15:58:19 86° WNW 16:02:40 10° SSW
ATLAS 2AS CENTAUR R/B 3.6 15:51:35 10° W 15:58:54 48° NNW 16:05:48 10° ENE
Feng Yun 1-1 Rocket 4.2 15:54:36 10° SSE 16:00:02 70° ENE 16:05:26 10° NNW
SL-16 R/B 3.4 15:56:04 10° SE 16:00:04 20° E 16:04:03 10° NE
IRIDIUM 106 4.5 15:55:06 10° SSE 16:00:07 50° E 16:05:11 10° NNE
Cosmos 1025 Rocket 4.0 15:57:05 10° N 16:00:48 27° ENE 16:04:08 12° ESE
Cosmos 1975 4.0 15:58:23 10° SSW 16:02:18 48° WNW 16:06:15 10° N
Meteor 1-24 Rocket 4.0 15:57:40 10° N 16:02:45 43° ENE 16:07:50 10° SE
IGS 5A 4.2 15:59:46 10° SE 16:03:31 34° ENE 16:07:17 10° N
DMSP B5D2-2 4.2 15:58:27 10° NNE 16:03:47 85° WNW 16:09:04 10° SSW
OBJECT-B 1.0 16:03:52 15° SE 16:05:37 31° ENE 16:07:59 10° N
Cosmos 2278 Rocket 3.9 16:02:09 10° NNW 16:06:19 20° NNE 16:10:29 10° ENE
Cosmos 1943 Rocket 4.2 16:03:39 10° NW 16:07:06 16° N 16:10:33 10° NE
SJ-6B 3.3 16:05:14 10° SE 16:08:42 37° ENE 16:12:14 10° N
NOSS 3-4 (A) 4.2 16:04:34 10° WNW 16:10:42 48° NNE 16:16:39 14° E
Cosmos 968 Rocket 4.3 16:06:25 10° SSE 16:10:47 27° E 16:15:09 10° NE
NOSS 3-4 (C) 4.2 16:04:40 10° WNW 16:10:48 48° NNE 16:16:44 14° E
HJ-1C 3.5 16:08:18 10° S 16:11:25 71° WSW 16:14:32 10° NNW
Cosmos 1726 2.1 16:07:57 10° S 16:11:32 58° E 16:15:09 10° NNE
ISS -1.2 16:11:47 10° WSW 16:13:54 16° SSW 16:16:00 10° S
CZ-4 R/B 1.5 16:11:42 10° SSE 16:15:53 87° WSW 16:20:06 10° NNW
Cosmos 2263 Rocket 3.0 16:10:25 10° NW 16:15:59 55° WSW 16:21:30 10° S
Cosmos 2369 Rocket 4.4 16:13:34 10° NW 16:17:26 18° N 16:21:19 10° NNE
Cosmos 1975 Rocket 3.6 16:13:31 10° N 16:17:43 39° ENE 16:21:07 14° SE
Cosmos 1437 Rocket 3.3 16:15:24 10° SSE 16:18:45 32° E 16:22:07 10° NNE
IRS-1C Rocket 4.4 16:13:48 10° SE 16:18:50 49° ENE 16:23:54 10° N
Cosmos 1378 Rocket 4.0 16:15:03 10° NNW 16:19:26 65° W 16:23:44 10° S
Spot 1 4.0 16:15:11 10° NNE 16:19:31 88° WNW 16:23:39 10° SSW
SL-4 R/B 3.5 16:17:04 10° W 16:21:03 33° SSW 16:24:43 13° SE
Cosmos 2084 3.0 16:20:02 10° SW 16:23:50 76° SE 16:27:19 12° NE
Cosmos 1092 Rocket 4.3 16:18:40 10° SSE 16:24:32 42° E 16:30:22 10° NNE
Meteor 2-14 Rocket 4.4 16:18:54 10° S 16:24:56 79° E 16:31:03 10° NNE
Cosmos 1844 3.9 16:19:53 10° NNW 16:25:21 53° NE 16:29:15 19° ESE
Cosmos 2227 4.5 16:20:20 10° NW 16:25:57 70° WSW 16:31:32 10° SSE
Ariane Rocket 4.2 16:30:27 19° E 16:32:26 25° NE 16:36:30 10° N
MetOp-A 4.1 16:33:16 25° ESE 16:34:38 33° ENE 16:38:16 10° N
Cosmos 1805 4.1 16:31:24 10° SSW 16:35:12 54° WNW 16:39:03 10° N
Cosmos 1733 Rocket 3.8 16:31:13 10° SSW 16:35:36 56° WNW 16:40:02 10° N
Cosmos 1850 Rocket 4.0 16:31:29 10° SSW 16:36:44 87° WNW 16:42:04 10° NNE
USA 215 3.2 16:31:03 13° ENE 16:37:07 82° SSE 16:43:41 10° WSW
Resurs 01 Rocket 2.5 16:37:02 25° E 16:38:37 32° ENE 16:42:34 10° N
Cosmos 1697 Rocket 3.5 16:35:39 10° SW 16:41:10 54° NW 16:46:43 10° NNE
Cosmos 1570 Rocket 4.3 16:35:55 10° NNW 16:41:11 71° WSW 16:46:24 10° SSE
ARGOS Delta rocket 4.4 16:36:05 10° N 16:41:27 69° WNW 16:46:31 10° SSW
Meteor 2-5 Rocket 3.6 16:36:37 10° NNW 16:42:13 87° ENE 16:47:45 10° SSE
deb Chang Zheng 4 3.8 16:40:54 27° ESE 16:42:39 43° ENE 16:46:36 10° N
CSL-04 Debris 4.1 16:37:50 10° SSE 16:43:15 86° ENE 16:48:42 10° NNW
USA 186 1.8 16:41:41 17° SSE 16:44:08 88° E 16:47:33 10° NNW
Meteor 2-21 Rocket 4.3 16:38:44 10° S 16:44:46 79° E 16:50:51 10° NNE
COSMO-SKYMED 1 4.3 16:42:15 10° N 16:46:14 35° WNW 16:50:12 10° SW
Meteor 1-15 Rocket 4.1 16:41:51 10° S 16:47:22 70° E 16:52:56 10° NNE
Cosmos 2360 Rocket 4.1 16:51:04 13° ENE 16:51:04 13° ENE 16:51:47 10° NE
DMSP B5D1-3 4.5 16:43:05 10° NNE 16:48:13 89° E 16:53:21 10° SSW
USA 281 4.2 16:48:16 20° E 16:51:43 33° NE 16:57:25 10° NNW
Cosmos 2292 Rocket 3.4 16:46:42 10° S 16:51:45 72° E 16:55:36 10° NNE
Cosmos 1766 3.6 16:48:02 10° SSW 16:51:57 69° WNW 16:55:55 10° N
Cosmos 836 Rocket 4.5 16:47:05 10° NNW 16:52:26 72° ENE 16:55:31 25° SE
Resurs 1-3 3.5 16:52:48 22° SSE 16:55:38 75° ENE 17:00:02 10° NNW
Okean-O 2.6 16:55:59 15° SSE 16:59:36 84° WSW 17:04:03 10° NNW
Meteor 2-16 Rocket 4.4 16:54:15 10° S 17:00:23 86° E 17:06:36 10° NNE
Cosmos 1627 Rocket 4.4 16:55:54 10° S 17:01:56 65° E 17:08:01 10° NNE
Landsat 5 3.5 16:57:48 10° NNE 17:02:19 67° ESE 17:06:46 10° S
CRYOSAT 2 4.3 16:57:52 10° S 17:02:46 85° E 17:07:42 10° N
Cosmos 489 Rocket 4.4 16:57:34 10° SSW 17:03:56 84° ESE 17:10:18 10° NNE
Cosmos 1428 Rocket 4.4 16:58:03 10° S 17:04:12 73° E 17:10:28 10° NNE
Cosmos 2195 Rocket 4.4 16:59:50 10° S 17:06:03 78° E 17:12:23 10° NNE
Landsat 7 3.7 17:04:00 23° SSE 17:07:00 86° ENE 17:11:45 10° NNW
Cosmos 2237 4.5 17:04:03 10° S 17:09:23 43° ESE 17:14:45 10° NE
CSL-04 Rocket 3.9 17:06:06 10° S 17:11:25 68° WSW 17:16:52 10° NNW
Cosmos 2322 Rocket 2.4 17:09:18 10° S 17:14:42 45° ESE 17:20:07 10° NE
Cosmos 921 Rocket 3.8 17:11:09 10° NNW 17:15:21 36° NE 17:15:41 36° ENE
Cosmos 1758 4.2 17:16:33 34° NE 17:16:33 34° NE 17:19:14 10° NNE
USA 81 4.2 17:12:11 10° N 17:17:29 77° W 17:22:19 12° S
H-2A R/B 2.1 17:16:53 58° SE 17:17:35 77° ENE 17:21:27 10° NNW
Cosmos 1470 2.7 17:14:54 10° SSW 17:18:45 81° WNW 17:22:37 10° N
Cosmos 1908 Rocket 4.3 17:17:38 10° SSW 17:21:52 52° WNW 17:26:08 10° N
Cosmos 1980 Rocket 3.0 17:16:49 10° WSW 17:22:19 52° NW 17:27:49 10° NNE
Cosmos 2026 Rocket 3.8 17:16:54 10° S 17:22:57 85° E 17:29:05 10° NNE
Cosmos 1300 Rocket 3.4 17:24:24 60° SE 17:24:47 64° E 17:29:08 10° NNE
Cosmos 773 Rocket 4.0 17:20:55 10° NNW 17:26:14 66° ENE 17:27:31 49° ESE
Cosmos 1553 Rocket 4.0 17:20:46 10° N 17:27:08 85° ENE 17:31:01 26° SSE
Cosmos 2084 Rocket 4.4 17:25:08 10° WNW 17:28:37 33° SW 17:29:28 30° SSW
Okean O Rocket 4.2 17:25:33 10° SW 17:28:46 20° W 17:32:01 10° NW
Cosmos 1782 Rocket 3.7 17:25:20 10° SSW 17:29:41 75° WNW 17:34:05 10° N
SeaSat 1 4.4 17:32:14 15° NE 17:33:56 18° NNE 17:37:12 10° NNW
IRS-1A Rocket 4.2 17:32:02 41° SSE 17:34:09 79° ENE 17:39:59 10° NNW
OBJECT-B 3.2 17:34:41 12° WSW 17:35:48 15° W 17:37:23 10° NW
Terra 3.1 17:37:10 27° NE 17:37:10 27° NE 17:40:42 10° N
Cosmos 1025 Rocket 4.0 17:34:28 10° NNW 17:38:35 45° W 17:41:02 22° SSW
Cosmos 2278 4.2 17:35:50 10° SW 17:41:29 61° NW 17:47:07 10° NNE
Cosmos 1844 Rocket 3.3 17:36:11 10° NW 17:41:42 53° WSW 17:44:19 30° S
SL-16 R/B 2.1 17:37:43 10° SSW 17:43:24 85° ESE 17:49:08 10° NE
Okean 2 Rocket 4.3 17:46:26 31° NE 17:46:26 31° NE 17:49:01 10° NNE
SPOT 1/Viking Rocket 3.6 17:49:04 48° S 17:50:31 76° WSW 17:55:42 10° NNW
Cosmos 158 Rocket 3.7 17:46:12 10° NNW 17:51:07 72° ENE 17:51:12 72° ENE
ATLAS 2AS CENTAUR R/B 3.4 17:43:59 10° WNW 17:51:10 50° NNE 17:54:08 32° ENE
CZ-4 R/B 4.5 17:49:18 10° WSW 17:51:28 14° W 17:53:36 10° NW
Cosmos 2278 Rocket 2.7 17:46:24 10° NNW 17:51:52 45° NE 17:52:30 43° ENE
Cosmos 968 Rocket 3.8 17:47:00 10° SW 17:52:13 65° WNW 17:57:27 10° NNE
Cosmos 1943 Rocket 3.5 17:48:14 10° NNW 17:52:50 26° NNE 17:53:56 24° NE
NOSS 2-1 (C) 4.4 17:49:28 10° NW 17:52:43 38° NNE 17:52:43 38° NNE
Cosmos 1536 Rocket 3.5 17:49:16 10° NNW 17:53:19 77° N 17:53:19 77° N
SPOT 3 Rocket 3.5 17:55:26 62° ENE 17:55:29 62° ENE 18:00:36 10° NNW
Cosmos 2315 Rocket 4.0 17:50:12 10° N 17:56:33 60° ENE 17:57:21 56° ESE
SPOT 5 3.3 17:59:39 48° NE 17:59:39 48° NE 18:03:35 10° N
Cosmos 1703 3.9 17:55:32 10° NNW 17:58:42 53° NW 17:58:42 53° NW
Meteor 1-21 Rocket 4.1 17:54:35 10° NNW 18:00:10 89° W 18:01:02 66° SSE
NOSS 3-4 (A) 3.7 17:55:37 10° NW 18:02:16 88° NNE 18:04:05 55° SE
NOSS 3-4 (C) 3.7 17:55:43 10° NW 18:02:23 88° NE 18:04:10 55° SE
NOSS 2-1 (D) 4.4 17:59:52 10° NW 18:02:52 39° N 18:02:52 39° N
Cosmos 2369 Rocket 4.1 17:59:27 10° NNW 18:03:40 20° NNE 18:05:50 17° NE
ERS-1 Rocket 3.4 18:07:33 49° NE 18:07:33 49° NE 18:11:49 10° N
Meteor 1-11 4.4 18:01:29 10° N 18:06:55 57° ENE 18:06:55 57° ENE
USA 245 4.2 18:07:50 71° ESE 18:08:17 76° ENE 18:13:38 10° NNW
MetOp-B 4.1 18:08:46 71° S 18:09:20 81° WSW 18:14:44 10° NNW
Cosmos 2219 Rocket 4.5 18:14:29 11° NE 18:14:29 11° NE 18:14:45 10° NE
Ariane Rocket 3.0 18:10:39 74° SW 18:10:56 77° WSW 18:16:05 10° NNW
CARTOSAT-1 4.0 18:12:30 60° NW 18:12:30 60° NW 18:16:09 10° NNW
Resurs 01 Rocket 2.5 18:14:36 42° WSW 18:15:00 43° W 18:19:17 10° NNW
Cosmos 2333 Rocket 4.1 18:19:32 18° NE 18:19:32 18° NE 18:20:57 10° NE
USA 215 3.2 18:18:24 51° ENE 18:20:13 80° N 18:26:46 10° W
ARIANE 5 R/B 4.2 18:24:50 27° NNE 18:24:50 27° NNE 18:27:20 10° N
Cosmos 1375 Rocket 4.4 18:18:57 10° NW 18:25:31 82° SW 18:26:02 75° S
Cosmos 1538 Rocket 4.2 18:23:28 10° NNW 18:28:19 70° N 18:28:19 70° N
Cosmos 2360 Rocket 2.8 18:32:44 45° NNE 18:32:44 45° NNE 18:36:36 10° NE
Cosmos 1655 Rocket 3.9 18:31:13 81° E 18:31:13 81° E 18:37:32 10° NNE
Spot 2 Rocket 3.8 18:35:31 61° NNW 18:35:31 61° NNW 18:39:42 10° NNW
USA 281 3.0 18:35:08 78° SE 18:35:39 88° ENE 18:42:16 10° NNW
S3M 4.5 18:31:01 10° NNW 18:37:06 54° W 18:38:38 44° SW
ADEOS Rocket 4.1 18:37:51 29° NE 18:37:51 29° NE 18:42:00 10° N
Cosmos 2266 Rocket 3.9 18:39:50 78° SW 18:40:17 85° W 18:46:43 10° N
In-Cosmos 22 Rocket 4.5 18:35:25 10° NNW 18:40:15 61° NNE 18:40:15 61° NNE
Cosmos 1867 4.5 18:37:04 10° NW 18:42:14 41° NNE 18:42:14 41° NNE
H-2A R/B 4.3 18:41:01 10° NNE 18:42:04 18° NNE 18:42:04 18° NNE
Meteor 2-10 Rocket 4.3 18:55:11 54° NNE 18:55:11 54° NNE 18:59:35 10° NNE
Cosmos 2322 Rocket 3.0 18:53:14 10° WSW 18:58:47 49° NW 19:04:21 10° NNE
Aureole 1 Rocket 4.1 19:04:42 70° NW 19:04:42 70° NW 19:10:09 10° NNE
Cosmos 1980 Rocket 4.5 19:03:20 10° WNW 19:07:37 22° NNW 19:11:53 10° NNE
SJ 16-02 4.0 19:11:55 13° NNE 19:11:55 13° NNE 19:12:27 10° NNE
SeaSat 1 3.8 19:12:00 34° N 19:12:00 34° N 19:15:12 10° NNW
Terra 3.3 19:16:03 35° NW 19:16:03 35° NW 19:18:55 10° NNW
SL-16 R/B 3.9 19:23:09 10° W 19:28:10 31° NW 19:33:13 10° NNE
Cosmos 2278 Rocket 3.4 19:30:36 10° NW 19:34:20 37° WNW 19:34:20 37° WNW
Cosmos 1943 Rocket 3.3 19:31:56 10° NNW 19:35:26 40° NNW 19:35:26 40° NNW
ATLAS 2AS CENTAUR R/B 3.0 19:35:29 10° NW 19:41:33 64° NW 19:41:33 64° NW
Cosmos 2369 Rocket 3.5 19:43:41 10° NNW 19:47:36 36° N 19:47:36 36° N
Cosmos 2219 Rocket 3.8 19:56:10 29° NNE 19:56:10 29° NNE 19:58:58 10° NNE
Cosmos 2333 Rocket 3.6 20:01:30 35° N 20:01:30 35° N 20:05:20 10° NNE
USA 215 4.1 20:05:45 42° WNW 20:05:45 42° WNW 20:09:53 10° WNW
COSMOS 2455 4.5 20:11:00 27° NNE 20:11:00 27° NNE 20:13:39 10° NE
Cosmos 2237 Rocket 4.3 20:19:24 18° NE 20:19:24 18° NE 20:20:49 10° NE
Cosmos 2360 Rocket 3.9 20:14:25 27° NW 20:15:38 29° NNW 20:20:34 10° NNE
ADEOS Rocket 4.2 20:24:48 34° NNW 20:24:48 34° NNW 20:28:01 10° NNW
COSMOS 2428 4.4 20:34:00 30° NNE 20:34:00 30° NNE 20:37:04 10° NNE
Cosmos 2322 Rocket 4.4 20:39:53 10° WNW 20:44:12 21° NNW 20:48:31 10° NNE
SJ 16-02 4.4 20:48:50 13° NNW 20:48:50 13° NNW 20:50:01 10° N
SL-16 R/B 4.3 21:01:30 20° NE 21:01:30 20° NE 21:03:09 10° NE
SL-16 R/B 4.2 21:17:59 25° ENE 21:18:37 26° NE 21:23:34 10° N
Cosmos 2369 Rocket 4.4 21:27:49 10° NW 21:29:22 19° NW 21:29:22 19° NW
Cosmos 2219 Rocket 4.2 21:37:52 22° NNW 21:38:32 23° NNW 21:42:58 10° NNE
Cosmos 2333 Rocket 4.4 21:43:28 17° NW 21:45:36 21° NNW 21:49:50 10° NNE
Resurs 1-4 Rocket 4.4 21:48:16 10° NE 21:50:13 16° ENE 21:50:13 16° ENE
COSMOS 2455 4.4 21:54:07 30° NNW 21:54:45 30° NNW 22:00:02 10° NE
Cosmos 1697 Rocket 4.5 21:53:37 10° NNW 21:58:25 27° NNE 21:59:38 25° NE
Cosmos 2237 Rocket 3.8 22:01:13 29° N 22:01:13 29° N 22:04:52 10° NNE
CZ-2D R/B 4.3 21:56:11 10° NE 21:58:34 18° ENE 21:58:34 18° ENE
Cosmos 2344 4.0 22:25:47 50° NW 22:27:08 56° NNW 22:35:45 10° ENE
ADEOS II 4.0 22:30:50 10° NE 22:34:07 22° ENE 22:34:07 22° ENE
Cosmos 1980 Rocket 4.0 22:34:52 10° NNW 22:39:41 28° NNE 22:44:29 10° E
SL-16 R/B 3.5 22:43:22 34° N 22:43:22 34° N 22:47:20 10° NNE
ATLAS 5 CENTAUR R/B 3.8 22:59:09 24° NE 22:59:09 24° NE 23:01:16 10° NE
SL-16 R/B 3.0 23:03:05 54° NNW 23:03:05 54° NNW 23:07:48 10° NNW
Lacrosse 4 Rocket 3.9 23:08:43 19° N 23:09:23 20° NNE 23:12:38 10° ENE
Cosmos 1943 4.0 23:13:48 47° N 23:13:48 47° N 23:18:02 10° NNE
Cosmos 1603 4.4 23:23:29 50° N 23:23:29 50° N 23:27:55 10° NNE
Resurs 1-4 Rocket 2.7 23:27:13 10° NNE 23:31:17 54° NNE 23:31:17 54° NNE
NPP 4.0 23:31:14 10° NNE 23:35:44 62° NNE 23:35:44 62° NNE
MSX 4.3 23:33:27 10° NNE 23:39:07 53° E 23:39:30 52° ESE
CZ-2D R/B 2.5 23:35:32 10° NNE 23:39:52 58° N 23:39:52 58° N
Cosmos 2366 rocket 4.5 23:43:09 47° NW 23:43:09 47° NW 23:48:11 10° N
IDEFIX/ARIANE 42P 2.9 23:37:17 10° NNE 23:42:01 62° ENE 23:42:01 62° ENE
Cosmos 1697 Rocket 3.5 23:37:33 10° NNW 23:41:13 42° NNW 23:41:13 42° NNW
Thor Agena Rocket 4.1 23:38:30 10° NNE 23:42:38 53° N 23:42:38 53° N
Cosmos 2237 Rocket 4.4 23:43:02 14° NW 23:45:34 18° N 23:49:22 10° NNE
Cosmos 2360 Rocket 4.5 23:43:28 10° NNW 23:47:42 21° NNE 23:51:55 10° ENE
Meteor 1-14 Rocket 4.4 23:42:13 10° NNW 23:48:12 75° ENE 23:48:36 72° ESE
